When you browse on this site, cookies collect data to enhance your experience and personalize the content and advertising you see.
Visit our Privacy Policy to learn more. By continuing to use the site, you agree to this use of cookies and data.
  • In Portugal
  • List of Countries
  • For 7 days
  • Water Temperature
  • Satellite Maps
  • Weather Map
  • Weather Widgets
  • user-avatar
    Login

    Hourly Weather Ravda

    Today, 16 February, Saturday

    Time Temperature Precipitation Wind Pressure Humidity
    00:00 +2°C° 0 mm 7 mps 772 mmHg 73%
    01:00 0°C° 0 mm 7 mps 771 mmHg 75%
    02:00 0°C° 0 mm 7 mps 771 mmHg 76%
    03:00 -1°C° 0 mm 6 mps 771 mmHg 78%
    04:00 -1°C° 0 mm 6 mps 771 mmHg 79%
    05:00 -1°C° 0 mm 6 mps 771 mmHg 80%
    06:00 -1°C° 0 mm 6 mps 772 mmHg 80%
    07:00 -1°C° 0 mm 6 mps 772 mmHg 80%
    08:00 -1°C° 0 mm 6 mps 772 mmHg 81%
    09:00 +1°C° 0 mm 6 mps 772 mmHg 76%
    10:00 +2°C° 0 mm 6 mps 772 mmHg 72%
    11:00 +4°C° 0 mm 6 mps 772 mmHg 68%
    12:00 +5°C° 0 mm 5 mps 772 mmHg 64%
    13:00 +6°C° 0 mm 5 mps 772 mmHg 61%
    14:00 +7°C° 0 mm 5 mps 772 mmHg 58%
    15:00 +7°C° 0 mm 4 mps 772 mmHg 60%
    16:00 +7°C° 0 mm 4 mps 771 mmHg 62%
    17:00 +6°C° 0 mm 4 mps 771 mmHg 64%
    18:00 +6°C° 0 mm 4 mps 771 mmHg 67%
    19:00 +5°C° 0 mm 4 mps 771 mmHg 71%
    20:00 +4°C° 0 mm 4 mps 772 mmHg 74%
    21:00 +4°C° 0 mm 3 mps 772 mmHg 75%
    22:00 +4°C° 0 mm 3 mps 772 mmHg 76%
    23:00 +3°C° 0 mm 3 mps 772 mmHg 77%

    Tomorrow, 17 February, Sunday

    Time Temperature Precipitation Wind Pressure Humidity
    00:00 +3°C° 0 mm 3 mps 771 mmHg 77%
    01:00 +3°C° 0 mm 3 mps 771 mmHg 77%
    02:00 +3°C° 0 mm 3 mps 771 mmHg 77%
    03:00 +3°C° 0 mm 3 mps 771 mmHg 77%
    04:00 +3°C° 0 mm 2 mps 771 mmHg 77%
    05:00 +3°C° 0 mm 2 mps 770 mmHg 77%
    06:00 +3°C° 0 mm 2 mps 770 mmHg 76%
    07:00 +4°C° 0 mm 2 mps 771 mmHg 75%
    08:00 +4°C° 0 mm 2 mps 771 mmHg 74%
    09:00 +5°C° 0 mm 2 mps 771 mmHg 67%
    10:00 +7°C° 0 mm 2 mps 771 mmHg 60%
    11:00 +10°C° 0 mm 1 mps 770 mmHg 54%
    12:00 +11°C° 0 mm 1 mps 770 mmHg 51%
    13:00 +12°C° 0 mm 1 mps 770 mmHg 48%
    14:00 +13°C° 0 mm 1 mps 769 mmHg 45%
    15:00 +13°C° 0 mm 1 mps 769 mmHg 48%
    16:00 +12°C° 0 mm 1 mps 768 mmHg 51%
    17:00 +12°C° 0 mm 1 mps 768 mmHg 54%
    18:00 +11°C° 0 mm 1 mps 768 mmHg 57%
    19:00 +10°C° 0 mm 1 mps 768 mmHg 60%
    20:00 +9°C° 0 mm 1 mps 768 mmHg 63%
    21:00 +9°C° 0 mm 1 mps 768 mmHg 64%
    22:00 +7°C° 0 mm 2 mps 768 mmHg 66%
    23:00 +7°C° 0 mm 2 mps 768 mmHg 67%

    Day after tomorrow, 18 February, Monday

    Time Temperature Precipitation Wind Pressure Humidity
    00:00 +7°C° 0 mm 2 mps 768 mmHg 66%
    01:00 +6°C° 0 mm 2 mps 768 mmHg 66%
    02:00 +6°C° 0 mm 2 mps 768 mmHg 66%
    03:00 +6°C° 0 mm 2 mps 768 mmHg 65%
    04:00 +6°C° 0 mm 2 mps 767 mmHg 64%
    05:00 +6°C° 0 mm 2 mps 767 mmHg 63%
    06:00 +6°C° 0 mm 2 mps 767 mmHg 63%
    07:00 +6°C° 0 mm 2 mps 768 mmHg 63%
    08:00 +6°C° 0 mm 2 mps 768 mmHg 62%
    09:00 +8°C° 0 mm 2 mps 768 mmHg 59%
    10:00 +9°C° 0 mm 2 mps 768 mmHg 55%
    11:00 +12°C° 0 mm 2 mps 768 mmHg 52%
    12:00 +13°C° 0 mm 2 mps 768 mmHg 50%
    13:00 +14°C° 0 mm 1 mps 768 mmHg 48%
    14:00 +15°C° 0 mm 1 mps 768 mmHg 45%
    15:00 +14°C° 0 mm 1 mps 768 mmHg 50%
    16:00 +13°C° 0 mm 2 mps 767 mmHg 54%
    17:00 +13°C° 0 mm 2 mps 767 mmHg 58%
    18:00 +10°C° 0 mm 2 mps 768 mmHg 64%
    19:00 +9°C° 0 mm 2 mps 768 mmHg 70%
    20:00 +8°C° 0 mm 2 mps 768 mmHg 76%
    21:00 +8°C° 0 mm 2 mps 768 mmHg 78%
    22:00 +9°C° 0 mm 1 mps 768 mmHg 80%
    23:00 +8°C° 0 mm 1 mps 769 mmHg 82%

    19 February, Tuesday

    Time Temperature Precipitation Wind Pressure Humidity
    00:00 +8°C° 0 mm 1 mps 769 mmHg 83%
    01:00 +8°C° 0 mm 1 mps 769 mmHg 85%
    02:00 +7°C° 0 mm 0 mps 769 mmHg 86%
    03:00 +6°C° 0 mm 0 mps 769 mmHg 86%
    04:00 +6°C° 0 mm 0 mps 769 mmHg 87%
    05:00 +6°C° 0 mm 0 mps 769 mmHg 87%
    06:00 +7°C° 0 mm 1 mps 769 mmHg 87%
    07:00 +7°C° 0 mm 1 mps 769 mmHg 87%
    08:00 +8°C° 0 mm 1 mps 769 mmHg 87%
    09:00 +8°C° 0 mm 2 mps 769 mmHg 81%
    10:00 +10°C° 0 mm 2 mps 770 mmHg 74%
    11:00 +11°C° 0 mm 3 mps 770 mmHg 68%
    12:00 +12°C° 0 mm 3 mps 769 mmHg 66%
    13:00 +12°C° 0 mm 3 mps 769 mmHg 63%
    14:00 +13°C° 0 mm 3 mps 768 mmHg 61%
    15:00 +12°C° 0 mm 4 mps 768 mmHg 66%
    16:00 +11°C° 0 mm 4 mps 768 mmHg 70%
    17:00 +11°C° 0 mm 4 mps 768 mmHg 75%
    18:00 +10°C° 0 mm 4 mps 768 mmHg 80%
    19:00 +8°C° 0 mm 4 mps 768 mmHg 85%
    20:00 +7°C° 0 mm 4 mps 768 mmHg 90%
    21:00 +7°C° 0 mm 4 mps 768 mmHg 90%
    22:00 +8°C° 0 mm 3 mps 768 mmHg 90%
    23:00 +8°C° 0 mm 3 mps 768 mmHg 91%

    20 February, Wednesday

    Time Temperature Precipitation Wind Pressure Humidity
    00:00 +7°C° 0 mm 3 mps 768 mmHg 91%
    01:00 +7°C° 0 mm 2 mps 768 mmHg 91%
    02:00 +7°C° 0 mm 2 mps 768 mmHg 91%
    03:00 +7°C° 0 mm 2 mps 767 mmHg 91%
    04:00 +6°C° 0 mm 2 mps 767 mmHg 91%
    05:00 +6°C° 0 mm 2 mps 767 mmHg 91%
    06:00 +6°C° 0 mm 2 mps 767 mmHg 90%
    07:00 +6°C° 0 mm 2 mps 767 mmHg 89%
    08:00 +6°C° 0 mm 2 mps 767 mmHg 88%
    09:00 +8°C° 0 mm 2 mps 767 mmHg 79%
    10:00 +10°C° 0 mm 2 mps 767 mmHg 71%
    11:00 +13°C° 0 mm 2 mps 767 mmHg 63%
    12:00 +14°C° 0 mm 2 mps 767 mmHg 58%
    13:00 +15°C° 0 mm 2 mps 767 mmHg 53%
    14:00 +16°C° 0 mm 2 mps 766 mmHg 48%
    15:00 +16°C° 0 mm 2 mps 766 mmHg 50%
    16:00 +15°C° 0 mm 2 mps 766 mmHg 52%
    17:00 +15°C° 0 mm 2 mps 766 mmHg 54%
    18:00 +14°C° 0 mm 2 mps 766 mmHg 58%
    19:00 +13°C° 0 mm 2 mps 767 mmHg 61%
    20:00 +12°C° 0 mm 2 mps 767 mmHg 64%
    21:00 +10°C° 0 mm 2 mps 767 mmHg 64%
    22:00 +10°C° 0 mm 2 mps 767 mmHg 64%
    23:00 +10°C° 0 mm 2 mps 767 mmHg 63%

    21 February, Thursday

    Time Temperature Precipitation Wind Pressure Humidity
    00:00 +9°C° 0 mm 2 mps 767 mmHg 65%
    01:00 +9°C° 0 mm 3 mps 767 mmHg 66%
    02:00 +8°C° 0 mm 3 mps 767 mmHg 67%
    03:00 +8°C° 0 mm 3 mps 767 mmHg 69%
    04:00 +8°C° 0 mm 3 mps 767 mmHg 71%
    05:00 +7°C° 0 mm 3 mps 767 mmHg 73%
    06:00 +7°C° 0 mm 3 mps 768 mmHg 74%
    07:00 +7°C° 0 mm 3 mps 768 mmHg 74%
    08:00 +7°C° 0 mm 3 mps 768 mmHg 75%
    09:00 +9°C° 0 mm 3 mps 768 mmHg 69%
    10:00 +10°C° 0 mm 3 mps 768 mmHg 64%
    11:00 +13°C° 0 mm 2 mps 769 mmHg 58%
    12:00 +13°C° 0 mm 2 mps 768 mmHg 56%
    13:00 +14°C° 0 mm 2 mps 768 mmHg 53%
    14:00 +14°C° 0 mm 2 mps 768 mmHg 51%
    15:00 +14°C° 0 mm 2 mps 768 mmHg 55%
    16:00 +13°C° 0 mm 2 mps 768 mmHg 59%
    17:00 +12°C° 0 mm 3 mps 768 mmHg 62%
    18:00 +12°C° 0 mm 2 mps 768 mmHg 67%
    19:00 +10°C° 0 mm 2 mps 768 mmHg 73%
    20:00 +9°C° 0 mm 2 mps 768 mmHg 78%
    21:00 +9°C° 0 mm 1 mps 768 mmHg 79%
    22:00 +9°C° 0 mm 1 mps 768 mmHg 81%
    23:00 +9°C° 0 mm 1 mps 768 mmHg 82%
    Show more